(489486) = 2007 GS3

Discovered at Siding Spring on 2007-04-11 by Siding Spring Survey.

Orbit

Orbit type: Apollo
Potentially Hazardous Asteroid

Note: WebGL enabled browser required.

epoch2023-02-25.0
epoch JD2460000.5
perihelion date2022-10-09.15398
perihelion JD2459861.65398
argument of perihelion (°)61.07792
ascending node (°)215.39290
inclination (°)15.08999
eccentricity0.1290533
perihelion distance (AU)0.9242463
Tisserand w.r.t. Jupiter5.8
ΔV w.r.t. Earth (km/sec)7.2
semimajor axis (AU)1.0611973
mean anomaly (°)125.18233
mean daily motion (°/day)0.90159110
aphelion distance (AU)1.198
period (years)1.09
P-vector [x]0.09521679
P-vector [y]-0.97970367
P-vector [z]-0.17639300
Q-vector [x]0.98397091
Q-vector [y]0.06578865
Q-vector [z]0.16575013
absolute magnitude19.4
phase slope0.15
uncertainty0
referenceMPEC 2023-D55
observations used563
oppositions5
arc length (days)5021
first opposition used2007
last opposition used2021
residual rms (arc-secs)0.73
perturbers coarse indicatorM-v
perturbers precise indicator003Ek
first observation date used2007-04-11.0
last observation date used2021-01-08.0
computer namePan
JD of orbit computation2457876.968833
perihelion JD uncertainty (days)4.7795E-05
argument of perihelion uncertainty (°)1.1346E-05
ascending node uncertainty (°)1.0255E-05
inclination uncertainty (°)5.8468E-06
eccentricity uncertainty 3.1596E-08
perihelion distance uncertainty (AU)2.8930E-08
Minimum Orbit Intersection Distances (in AU)
for orbit epoch: 2460000.5, reference: E2023-D55
Mercury0.48661
Venus0.23289
Earth0.02155
Mars0.3259
Jupiter3.84439
Saturn7.88968
Uranus17.365
Neptune28.7349

Observations

625 total observations over interval: 2007 04 11.48243 – 2021 01 08.30543
These data are available for download (format description).

Date (UT) J2000 RA J2000 Dec Magn Location Ref
2007 04 11.48243 07 23 49.27 -50 55 33.2 16.4 V E12 – Siding Spring Survey MPS 206304
2007 04 11.49980 07 23 43.51 -50 54 05.0 16.3 V E12 – Siding Spring Survey MPS 206304
2007 04 11.50847 07 23 40.70 -50 53 20.5 16.4 V E12 – Siding Spring Survey MPS 206304
2007 04 11.55716 07 23 25.38 -50 49 09.3 16.3 V E12 – Siding Spring Survey MPS 206304
2007 04 12.47994 07 18 51.94 -49 32 29.5 16.3 V E12 – Siding Spring Survey MPS 206304
2007 04 12.49448 07 18 46.98 -49 31 06.8 16.4 V E12 – Siding Spring Survey MPS 206304
2007 04 12.50175 07 18 44.49 -49 30 24.9 16.4 V E12 – Siding Spring Survey MPS 206304
2007 04 13.40363 07 14 05.76 -48 05 22.4 16.2 R 474 – Mount John Observatory, Lake Tekapo MPS 206304
2007 04 13.40434 07 14 05.58 -48 05 18.7 16.2 R 474 – Mount John Observatory, Lake Tekapo MPS 206304
2007 04 13.40503 07 14 05.34 -48 05 13.5 16.1 R 474 – Mount John Observatory, Lake Tekapo MPS 206304
2007 04 13.51603 07 13 27.59 -47 53 21.2 16.6 R 474 – Mount John Observatory, Lake Tekapo MPS 206304
2007 04 13.51707 07 13 27.23 -47 53 14.2 16.7 R 474 – Mount John Observatory, Lake Tekapo MPS 206304
2007 04 13.53270 07 13 22.22 -47 51 32.4 16.7 R 474 – Mount John Observatory, Lake Tekapo MPS 206304
2007 04 14.34531 07 09 00.80 -46 25 32.4 16.3 R 474 – Mount John Observatory, Lake Tekapo MPS 207005
2007 04 14.34728 07 09 00.04 -46 25 18.6 16.3 R 474 – Mount John Observatory, Lake Tekapo MPS 207005
2007 04 14.36962 07 08 51.49 -46 22 41.2 16.5 R 474 – Mount John Observatory, Lake Tekapo MPS 207005
2007 04 14.37043 07 08 51.18 -46 22 35.4 16.5 R 474 – Mount John Observatory, Lake Tekapo MPS 207005
2007 04 17.36782 06 50 41.20 -39 18 44.2 16.1 V E12 – Siding Spring Survey MPS 207005
2007 04 17.36818 06 50 41.02 -39 18 40.5 16.2 V E12 – Siding Spring Survey MPS 207005
2007 04 17.36852 06 50 40.88 -39 18 36.6 16.2 V E12 – Siding Spring Survey MPS 207005
2007 05 18.10289 01 03 27.46 +67 45 57.0 19.5 R 204 – Schiaparelli Observatory MPS 212440
2007 05 26.44743 00 33 47.66 +67 25 54.2 18.1 V 703 – Catalina Sky Survey MPS 210464
2007 05 26.45821 00 33 46.58 +67 25 52.6 18.3 V 703 – Catalina Sky Survey MPS 210464
2007 06 05.36302 00 29 28.21 +66 22 36.9   H36 – Sandlot Observatory, Scranton MPS 210586
2007 06 05.38098 00 29 28.79 +66 22 31.3 19.3 R H36 – Sandlot Observatory, Scranton MPS 210586
2007 06 05.40253 00 29 29.30 +66 22 28.1   H36 – Sandlot Observatory, Scranton MPS 210586
2007 06 28.06450 01 14 33.28 +63 54 54.3   J95 – Great Shefford MPS 211388
2007 06 28.06998 01 14 34.14 +63 54 51.8 20.0 R J95 – Great Shefford MPS 211388
2007 07 18.43979 02 22 15.67 +61 16 08.5 19.4 R H01 – Magdalena Ridge Observatory, Socorro MPS 212440
2007 07 18.44161 02 22 16.04 +61 16 07.6 19.5 R H01 – Magdalena Ridge Observatory, Socorro MPS 212440
2007 07 18.44303 02 22 16.33 +61 16 06.8 19.5 R H01 – Magdalena Ridge Observatory, Socorro MPS 212440
2007 07 19.60963 02 26 27.66 +61 05 12.5   F65 – Haleakala-Faulkes Telescope North MPS 212033
2007 07 19.61855 02 26 29.19 +61 05 05.6   F65 – Haleakala-Faulkes Telescope North MPS 212033
2007 08 04.45507 03 23 56.62 +58 02 10.0 19.9 R H01 – Magdalena Ridge Observatory, Socorro MPS 212661
2007 08 04.46200 03 23 58.02 +58 02 04.7 19.5 R H01 – Magdalena Ridge Observatory, Socorro MPS 212661
2007 08 04.46582 03 23 58.81 +58 02 02.0 19.9 R H01 – Magdalena Ridge Observatory, Socorro MPS 212661
2007 08 04.46865 03 23 59.42 +58 01 59.6 19.7 R H01 – Magdalena Ridge Observatory, Socorro MPS 212661
2007 09 06.51086 05 10 21.63 +47 23 15.3   F65 – Haleakala-Faulkes Telescope North MPS 214525
2007 09 06.51206 05 10 21.85 +47 23 13.6   F65 – Haleakala-Faulkes Telescope North MPS 214525
2007 09 11.54686 05 23 23.19 +45 07 15.1   F65 – Haleakala-Faulkes Telescope North MPS 215192
2007 09 11.57119 05 23 26.59 +45 06 35.5 19.5 R F65 – Haleakala-Faulkes Telescope North MPS 215192
2007 09 11.57244 05 23 26.74 +45 06 33.9 19.5 R F65 – Haleakala-Faulkes Telescope North MPS 215192
2007 09 11.57362 05 23 26.94 +45 06 31.7 19.4 R F65 – Haleakala-Faulkes Telescope North MPS 215192
2007 09 13.04375 05 27 02.83 +44 24 14.6 19.9 V 151 – Eschenberg Observatory, Winterthur MPS 215192
2007 09 13.04678 05 27 03.13 +44 24 09.9 18.8 V 151 – Eschenberg Observatory, Winterthur MPS 215192
2007 10 07.385437 06 11 32.80 +29 45 34.4 19.0 V H55 – Astronomical Research Observatory, Charleston MPS 218743
2007 10 07.388746 06 11 33.00 +29 45 25.7 19.1 V H55 – Astronomical Research Observatory, Charleston MPS 218743
2007 10 07.391972 06 11 33.19 +29 45 17.3 19.2 V H55 – Astronomical Research Observatory, Charleston MPS 218743
2007 10 09.38099 06 13 46.84 +28 15 33.8 19.8   704 – Lincoln Laboratory ETS, New Mexico MPS 218743
2007 10 09.39208 06 13 47.51 +28 15 04.7 19.4   704 – Lincoln Laboratory ETS, New Mexico MPS 218743
2007 10 09.40317 06 13 48.06 +28 14 33.9 20.0   704 – Lincoln Laboratory ETS, New Mexico MPS 218743
2007 10 09.41434 06 13 48.62 +28 14 04.3 19.8   704 – Lincoln Laboratory ETS, New Mexico MPS 218743
2007 10 11.37038 06 15 45.01 +26 42 39.5 19.2   704 – Lincoln Laboratory ETS, New Mexico MPS 218743
2007 10 11.38156 06 15 45.48 +26 42 08.1 19.4   704 – Lincoln Laboratory ETS, New Mexico MPS 218743
2007 10 11.39275 06 15 45.93 +26 41 36.9 19.8   704 – Lincoln Laboratory ETS, New Mexico MPS 218743
2007 10 11.40400 06 15 46.47 +26 41 05.1 19.3   704 – Lincoln Laboratory ETS, New Mexico MPS 218743
2007 10 11.41520 06 15 47.00 +26 40 35.1 19.6   704 – Lincoln Laboratory ETS, New Mexico MPS 218743
2007 10 14.37047 06 18 13.22 +24 16 30.5 19.3   704 – Lincoln Laboratory ETS, New Mexico MPS 220605
2007 10 14.38174 06 18 13.68 +24 15 55.8 19.6   704 – Lincoln Laboratory ETS, New Mexico MPS 220605
2007 10 14.39301 06 18 14.02 +24 15 24.3 19.4   704 – Lincoln Laboratory ETS, New Mexico MPS 220605
2007 10 14.40438 06 18 14.41 +24 14 49.6 20.1   704 – Lincoln Laboratory ETS, New Mexico MPS 220605
2007 10 22.05742 06 21 42.00 +17 27 47.6 18.3 R A80 – Lindenberg Observatory MPS 222560
2007 10 22.05780 06 21 42.01 +17 27 46.0 18.1 R A80 – Lindenberg Observatory MPS 222560
2007 10 22.05818 06 21 42.03 +17 27 45.1 17.9 R A80 – Lindenberg Observatory MPS 222560
2007 11 05.30825 06 16 12.27 +02 57 47.7 18.0 R H45 – Arkansas Sky Obs., Petit Jean Mountain South MPS 224944
2007 11 05.30925 06 16 12.19 +02 57 43.7 17.9 R H45 – Arkansas Sky Obs., Petit Jean Mountain South MPS 224944
2007 11 05.31013 06 16 12.14 +02 57 40.2 18.0 R H45 – Arkansas Sky Obs., Petit Jean Mountain South MPS 224944
2007 11 05.31099 06 16 12.07 +02 57 37.1 18.1 R H45 – Arkansas Sky Obs., Petit Jean Mountain South MPS 224944
2007 11 05.31198 06 16 11.98 +02 57 32.9 18.0 R H45 – Arkansas Sky Obs., Petit Jean Mountain South MPS 224944
2007 11 05.31302 06 16 11.93 +02 57 29.2 18.1 R H45 – Arkansas Sky Obs., Petit Jean Mountain South MPS 224944
2007 11 06.45525 06 14 59.44 +01 43 56.2 17.8 R H45 – Arkansas Sky Obs., Petit Jean Mountain South MPS 224944
2007 11 06.45602 06 14 59.42 +01 43 53.2 17.8 R H45 – Arkansas Sky Obs., Petit Jean Mountain South MPS 224944
2007 11 06.45710 06 14 59.33 +01 43 48.7 17.8 R H45 – Arkansas Sky Obs., Petit Jean Mountain South MPS 224944
2007 11 06.45885 06 14 59.20 +01 43 42.1 17.9 R H45 – Arkansas Sky Obs., Petit Jean Mountain South MPS 224944
2007 11 06.45975 06 14 59.11 +01 43 38.8 17.9 R H45 – Arkansas Sky Obs., Petit Jean Mountain South MPS 224944
2007 11 06.46070 06 14 59.04 +01 43 34.9 17.9 R H45 – Arkansas Sky Obs., Petit Jean Mountain South MPS 224944
2007 11 08.33543 06 12 49.59 -00 17 15.0 17.9 R H45 – Arkansas Sky Obs., Petit Jean Mountain South MPS 224944
2007 11 08.34167 06 12 49.04 -00 17 39.5 17.9 R H45 – Arkansas Sky Obs., Petit Jean Mountain South MPS 224944
2007 11 08.34255 06 12 48.96 -00 17 43.0 17.9 R H45 – Arkansas Sky Obs., Petit Jean Mountain South MPS 224944
2007 11 08.34442 06 12 48.83 -00 17 49.8 18.0 R H45 – Arkansas Sky Obs., Petit Jean Mountain South MPS 224944
2007 11 08.34538 06 12 48.74 -00 17 53.5 18.2 R H45 – Arkansas Sky Obs., Petit Jean Mountain South MPS 224944
2007 11 08.34639 06 12 48.64 -00 17 57.3 18.0 R H45 – Arkansas Sky Obs., Petit Jean Mountain South MPS 224944
